{"data":{"norad_id":54797,"epoch":"2026-05-25T01:56:18.146112Z","epoch_age_seconds":64571,"freshness":"FRESH","line1":"1 54797U 22175AR  26145.08076558  .00000348  00000+0  39966-4 0  9997","line2":"2 54797  53.2135  61.0296 0001221  92.0549 268.0583 15.08840726191455","mean_motion":15.08840726,"eccentricity":0.0001221,"inclination_deg":53.2135,"raan_deg":61.0296,"arg_perigee_deg":92.0549,"mean_anomaly_deg":268.0583,"bstar":3.9966e-5,"rev_number":19145,"period_min":95.43750875664,"perigee_km":538.89649694889,"apogee_km":540.58584279798,"semimajor_km":6917.8781698734,"source":"CELESTRAK","updated_at":"2026-05-25T13:38:17.696057Z"}}